{"data":{"norad_id":68082,"epoch":"2026-05-24T20:07:47.237088Z","epoch_age_seconds":85392,"freshness":"FRESH","line1":"1 68082U 26042P   26144.83874117  .00019079  00000+0  57439-3 0  9990","line2":"2 68082  53.1588 184.3130 0001206  84.9610 275.1531 15.34398469 13979","mean_motion":15.34398469,"eccentricity":0.0001206,"inclination_deg":53.1588,"raan_deg":184.313,"arg_perigee_deg":84.961,"mean_anomaly_deg":275.1531,"bstar":0.00057439,"rev_number":1397,"period_min":93.847851721234,"perigee_km":461.88278478378,"apogee_km":463.53279654729,"semimajor_km":6840.8447906655,"source":"CELESTRAK","updated_at":"2026-05-25T13:38:21.819859Z"}}